Previsão horária em Aaruti

Hoje, 30 Outubro, Sexta-feira

Tempo Temperatura Precipitação Vento Pressão Humidade
00:00 +10°C° 0.1 mm 2 m/s 724 mmHg 93%
01:00 +10°C° 0.1 mm 2 m/s 724 mmHg 93%
02:00 +9°C° 0 mm 2 m/s 724 mmHg 93%
03:00 +9°C° 0 mm 2 m/s 724 mmHg 93%
04:00 +9°C° 0 mm 2 m/s 724 mmHg 94%
05:00 +9°C° 0 mm 2 m/s 724 mmHg 94%
06:00 +9°C° 0 mm 2 m/s 724 mmHg 93%
07:00 +9°C° 0 mm 2 m/s 724 mmHg 93%
08:00 +10°C° 0 mm 2 m/s 724 mmHg 91%
09:00 +12°C° 0 mm 2 m/s 724 mmHg 88%
10:00 +12°C° 0 mm 1 m/s 724 mmHg 85%
11:00 +13°C° 0 mm 2 m/s 724 mmHg 82%
12:00 +14°C° 0 mm 2 m/s 724 mmHg 78%
13:00 +15°C° 0 mm 2 m/s 724 mmHg 74%
14:00 +15°C° 0 mm 2 m/s 724 mmHg 76%
15:00 +14°C° 0 mm 1 m/s 724 mmHg 78%
16:00 +14°C° 0 mm 1 m/s 724 mmHg 80%
17:00 +12°C° 0 mm 1 m/s 724 mmHg 84%
18:00 +11°C° 0 mm 1 m/s 724 mmHg 89%
19:00 +8°C° 0 mm 0 m/s 724 mmHg 93%
20:00 +8°C° 0 mm 0 m/s 724 mmHg 93%
21:00 +8°C° 0 mm 0 m/s 725 mmHg 93%
22:00 +8°C° 0 mm 0 m/s 725 mmHg 94%
23:00 +7°C° 0 mm 0 m/s 725 mmHg 94%

Amanhã, 31 Outubro, Sábado

Tempo Temperatura Precipitação Vento Pressão Humidade
00:00 +7°C° 0 mm 0 m/s 724 mmHg 94%
01:00 +7°C° 0 mm 0 m/s 724 mmHg 95%
02:00 +6°C° 0 mm 0 m/s 724 mmHg 95%
03:00 +6°C° 0 mm 0 m/s 723 mmHg 95%
04:00 +6°C° 0 mm 0 m/s 723 mmHg 96%
05:00 +6°C° 0 mm 0 m/s 723 mmHg 96%
06:00 +6°C° 0 mm 0 m/s 723 mmHg 96%
07:00 +5°C° 0 mm 0 m/s 723 mmHg 96%
08:00 +7°C° 0 mm 0 m/s 723 mmHg 92%
09:00 +9°C° 0 mm 0 m/s 722 mmHg 88%
10:00 +10°C° 0 mm 0 m/s 722 mmHg 85%
11:00 +11°C° 0 mm 0 m/s 722 mmHg 80%
12:00 +13°C° 0 mm 0 m/s 722 mmHg 75%
13:00 +15°C° 0 mm 1 m/s 722 mmHg 71%
14:00 +13°C° 0 mm 0 m/s 721 mmHg 73%
15:00 +13°C° 0 mm 0 m/s 721 mmHg 76%
16:00 +13°C° 0 mm 0 m/s 721 mmHg 78%
17:00 +11°C° 0 mm 0 m/s 721 mmHg 81%
18:00 +10°C° 0 mm 0 m/s 721 mmHg 83%
19:00 +9°C° 0 mm 0 m/s 721 mmHg 85%
20:00 +8°C° 0 mm 0 m/s 721 mmHg 85%
21:00 +8°C° 0 mm 0 m/s 721 mmHg 85%
22:00 +8°C° 0 mm 0 m/s 721 mmHg 86%
23:00 +9°C° 0 mm 1 m/s 721 mmHg 85%

Depois de amanhã, 1 Novembro, Domingo

Tempo Temperatura Precipitação Vento Pressão Humidade
00:00 +8°C° 0 mm 1 m/s 721 mmHg 85%
01:00 +8°C° 0 mm 1 m/s 721 mmHg 84%
02:00 +8°C° 0 mm 1 m/s 721 mmHg 83%
03:00 +8°C° 0 mm 1 m/s 721 mmHg 82%
04:00 +8°C° 0 mm 1 m/s 720 mmHg 82%
05:00 +8°C° 0 mm 1 m/s 720 mmHg 81%
06:00 +8°C° 0 mm 1 m/s 720 mmHg 81%
07:00 +8°C° 0 mm 1 m/s 720 mmHg 81%
08:00 +9°C° 0 mm 1 m/s 721 mmHg 78%
09:00 +10°C° 0 mm 1 m/s 721 mmHg 76%
10:00 +12°C° 0 mm 1 m/s 721 mmHg 74%
11:00 +12°C° 0 mm 1 m/s 721 mmHg 74%
12:00 +12°C° 0 mm 1 m/s 721 mmHg 75%
13:00 +13°C° 0 mm 1 m/s 720 mmHg 76%
14:00 +13°C° 0 mm 1 m/s 720 mmHg 77%
15:00 +13°C° 0 mm 1 m/s 720 mmHg 78%
16:00 +13°C° 0 mm 1 m/s 720 mmHg 79%
17:00 +13°C° 0 mm 1 m/s 720 mmHg 78%
18:00 +13°C° 0 mm 1 m/s 720 mmHg 78%
19:00 +12°C° 0 mm 1 m/s 720 mmHg 78%
20:00 +12°C° 0 mm 1 m/s 720 mmHg 77%
21:00 +12°C° 0 mm 1 m/s 720 mmHg 77%
22:00 +12°C° 0 mm 1 m/s 720 mmHg 76%
23:00 +13°C° 0 mm 1 m/s 719 mmHg 75%

2 Novembro, Segunda-feira

Tempo Temperatura Precipitação Vento Pressão Humidade
00:00 +13°C° 0 mm 1 m/s 719 mmHg 75%
01:00 +13°C° 0 mm 1 m/s 719 mmHg 74%
02:00 +13°C° 0 mm 2 m/s 719 mmHg 75%
03:00 +13°C° 0 mm 2 m/s 719 mmHg 76%
04:00 +13°C° 0 mm 2 m/s 719 mmHg 76%
05:00 +13°C° 0.1 mm 2 m/s 719 mmHg 78%
06:00 +13°C° 0.1 mm 2 m/s 719 mmHg 80%
07:00 +13°C° 0.1 mm 1 m/s 719 mmHg 82%
08:00 +14°C° 0 mm 1 m/s 719 mmHg 79%
09:00 +15°C° 0 mm 1 m/s 719 mmHg 76%
10:00 +16°C° 0 mm 1 m/s 719 mmHg 73%
11:00 +17°C° 0 mm 2 m/s 719 mmHg 70%
12:00 +18°C° 0 mm 2 m/s 719 mmHg 67%
13:00 +20°C° 0 mm 2 m/s 719 mmHg 64%
14:00 +19°C° 0 mm 2 m/s 719 mmHg 67%
15:00 +18°C° 0 mm 2 m/s 719 mmHg 70%
16:00 +19°C° 0 mm 1 m/s 719 mmHg 74%
17:00 +18°C° 0 mm 1 m/s 719 mmHg 77%
18:00 +15°C° 0 mm 1 m/s 719 mmHg 80%
19:00 +14°C° 0 mm 1 m/s 719 mmHg 83%
20:00 +14°C° 0 mm 1 m/s 719 mmHg 83%
21:00 +13°C° 0 mm 1 m/s 719 mmHg 82%
22:00 +13°C° 0 mm 1 m/s 719 mmHg 82%
23:00 +13°C° 0 mm 1 m/s 719 mmHg 82%

3 Novembro, Terça-feira

Tempo Temperatura Precipitação Vento Pressão Humidade
00:00 +12°C° 0 mm 1 m/s 720 mmHg 82%
01:00 +12°C° 0 mm 1 m/s 720 mmHg 82%
02:00 +12°C° 0 mm 1 m/s 720 mmHg 84%
03:00 +11°C° 0 mm 0 m/s 719 mmHg 86%
04:00 +11°C° 0 mm 0 m/s 719 mmHg 89%
05:00 +11°C° 0 mm 0 m/s 719 mmHg 89%
06:00 +11°C° 0 mm 0 m/s 719 mmHg 90%
07:00 +11°C° 0 mm 0 m/s 719 mmHg 90%
08:00 +13°C° 0.1 mm 1 m/s 720 mmHg 88%
09:00 +14°C° 0.1 mm 1 m/s 720 mmHg 85%
10:00 +14°C° 0.1 mm 1 m/s 720 mmHg 83%
11:00 +14°C° 0.7 mm 1 m/s 720 mmHg 87%
12:00 +13°C° 0.7 mm 1 m/s 720 mmHg 91%
13:00 +13°C° 0.7 mm 1 m/s 720 mmHg 95%
14:00 +12°C° 1.1 mm 2 m/s 721 mmHg 94%
15:00 +10°C° 1.1 mm 3 m/s 721 mmHg 93%
16:00 +10°C° 1.1 mm 4 m/s 721 mmHg 92%
17:00 +9°C° 0.7 mm 3 m/s 722 mmHg 92%
18:00 +8°C° 0.7 mm 3 m/s 722 mmHg 91%
19:00 +7°C° 0.7 mm 2 m/s 723 mmHg 91%
20:00 +7°C° 0.4 mm 2 m/s 723 mmHg 92%
21:00 +7°C° 0.4 mm 2 m/s 724 mmHg 92%
22:00 +8°C° 0.4 mm 1 m/s 724 mmHg 93%
23:00 +8°C° 0.3 mm 1 m/s 724 mmHg 93%

4 Novembro, Quarta-feira

Tempo Temperatura Precipitação Vento Pressão Humidade
00:00 +7°C° 0.3 mm 1 m/s 724 mmHg 93%
01:00 +7°C° 0.3 mm 1 m/s 724 mmHg 93%
02:00 +7°C° 0.4 mm 1 m/s 724 mmHg 94%
03:00 +7°C° 0.4 mm 1 m/s 724 mmHg 94%
04:00 +7°C° 0.4 mm 1 m/s 724 mmHg 94%
05:00 +7°C° 0.4 mm 1 m/s 724 mmHg 94%
06:00 +7°C° 0.4 mm 1 m/s 724 mmHg 94%
07:00 +7°C° 0.4 mm 1 m/s 724 mmHg 95%
08:00 +7°C° 0.2 mm 1 m/s 724 mmHg 93%
09:00 +7°C° 0.2 mm 1 m/s 725 mmHg 91%
10:00 +7°C° 0.2 mm 1 m/s 725 mmHg 89%
11:00 +8°C° 0.1 mm 1 m/s 725 mmHg 86%
12:00 +8°C° 0.1 mm 1 m/s 725 mmHg 83%
13:00 +9°C° 0.1 mm 1 m/s 725 mmHg 80%
14:00 +9°C° 0 mm 1 m/s 725 mmHg 81%
15:00 +9°C° 0 mm 1 m/s 725 mmHg 82%
16:00 +8°C° 0 mm 1 m/s 725 mmHg 83%
17:00 +8°C° 0 mm 1 m/s 725 mmHg 86%
18:00 +7°C° 0 mm 1 m/s 725 mmHg 89%
19:00 +6°C° 0 mm 1 m/s 725 mmHg 92%
20:00 +5°C° 0 mm 1 m/s 726 mmHg 92%
21:00 +4°C° 0 mm 2 m/s 726 mmHg 93%
22:00 +4°C° 0 mm 2 m/s 726 mmHg 93%
23:00 +4°C° 0 mm 2 m/s 726 mmHg 93%
Mostrar mais